Location: Newark
(58.8333°N, 23.5833°E)
Time: 22:39:31
(UTC+00:00)

S-56A Canister/Altair - Visible Passes

Search period start: 22 November 2019 00:00
Search period end: 02 December 2019 00:00
Orbit: 634 x 2499 km, 38.9° (Epoch: 22 November)

Date Brightness Start Highest point End Pass type
(mag) Time Alt. Az. Time Alt. Az. Time Alt. Az.
22 Nov 10.3 15:57:04 10° SW 16:02:29 17° S 16:06:54 10° SE visible
22 Nov 10.3 18:02:02 10° SW 18:04:43 12° SSW 18:05:59 12° SSW visible
23 Nov 10.4 15:23:42 10° SW 15:29:49 18° S 15:34:44 10° SE visible
23 Nov 10.2 17:28:14 10° SW 17:32:12 14° SSW 17:35:07 11° S visible
24 Nov 10.5 14:50:21 10° SW 14:57:08 19° S 15:02:30 10° SE visible
24 Nov 10.3 16:54:36 10° SW 16:59:38 16° SSW 17:03:47 10° SSE visible
25 Nov 10.4 16:21:01 10° SW 16:27:02 18° SSW 16:31:51 10° SSE visible
26 Nov 10.5 15:47:28 10° SW 15:54:24 20° SSW 15:59:48 10° SSE visible
26 Nov 10.6 17:54:41 10° SW 17:56:24 11° SW 17:58:00 10° SSW visible
27 Nov 10.6 15:13:56 10° SW 15:21:40 22° S 15:27:40 10° SE visible
27 Nov 10.6 17:20:06 10° WSW 17:23:53 13° SSW 17:27:10 10° S visible
28 Nov 10.7 14:40:24 10° SW 14:48:54 23° S 14:55:27 10° SE visible
28 Nov 10.6 16:46:05 10° WSW 16:51:18 16° SSW 16:55:39 10° S visible
29 Nov 10.7 16:12:14 10° WSW 16:18:41 18° SSW 16:23:53 10° SSE visible
30 Nov 10.8 15:38:28 10° WSW 15:46:00 20° SSW 15:51:57 10° SSE visible
01 Dec 10.9 15:04:45 10° WSW 15:13:15 23° SSW 15:19:54 10° SSE visible
01 Dec 11.2 17:13:55 10° SW 17:15:09 10° SW 17:16:21 10° SW visible
